星链-4330 (STARLINK-4330 )

导读 | 豆包AI

STARLINK-4330是美国太空探索技术公司(SpaceX)于2022年7月11日发射的星链(Starlink)卫星,属于星链互联网星座的组成部分。星链项目旨在为全球偏远及传统网络覆盖不足地区提供高速卫星互联网服务,截至2024年6月,整个星链网络已拥有超6000颗在轨卫星,占全球现役卫星总数一半以上,并已拓展至蜂窝通信、军事通信等领域。

基本信息
目录编号:
53080
目录名称:
STARLINK-4330
国际标识:
2022-077AP
轨道中心:
EARTH
卫星名称:
星链-4330
卫星全名:
星链-4330 (STARLINK-4330 )
卫星状态:
在轨 (已飞行1389 天)
发射日期:
2022-07-11 UTC
国别 :
美国 (US)
星等 :
--
轨道信息
数据来源 国际轨道数据 AOE轨道数据
星历时间 2026-04-30T07:58:19+0800
19小时前
查看轨道信息
2026-04-29T17:00:00+0800
1天前
查看轨道信息
半长轴 6927.659km 6927.631km
偏心率 0.0001277 0.0001536
轨道倾角 97.557° 97.562°
近地点辐角 83.589° 87.551°
升交点赤经 301.738° 301.124°
平近点角 276.549° 133.333°
近地点 548.637km 548.429km
远地点 550.407km 550.559km
周期 95.640分钟 95.639分钟
每日圈数 15.056465 15.056557
详细信息
固有亮度:
5
最大亮度:
2.5
卫星平台:
Starlink v1.5
覆盖范围:
全球
运营商:
太空探索技术公司
运营商所在国:
美国
制造商(研发单位):
太空探索技术公司
制造商所在国:
美国
使用方式:
暂无
卫星简介
星链(Starlink)计划是由太空探索技术公司(SpaceX)提出的一个巨型低轨卫星互联网星座项目,计划在2019年至2024年间在太空搭建由约1.2万颗卫星组成的“星链”网络,其中1584颗将部署在地球上空550千米处的近地轨道,并从2020年开始工作。该卫星仍在工作。
2D轨道图
3D轨道图
轨道高度分析图
轨道倾角分析图
轨道综合分析图
查看轨道综合分析图